Location: New Plymouth
(39.0670°S, 174.0830°E)
Time: 06:47:58
(UTC+12:00)

NOAA 19 - Pass Details

Date: 24 August 2019
Orbit: 840 x 862 km, 99.2° (Epoch: 15 September)

Event Time Altitude Azimuth Distance (km) Brightness Sun altitude
Rises 18:24:52 0° 173° (S) 3,460 8.2 -6.8°
Reaches altitude 10° 18:27:20 10° 178° (S) 2,520 7.6 -7.2°
Maximum altitude 18:32:40 48° 250° (WSW) 1,128 6.4 -8.3°
Drops below altitude 10° 18:37:59 10° 322° (NW) 2,501 8.3 -9.3°
Sets 18:40:25 0° 328° (NNW) 3,432 9.0 -9.8°
